Darstellungsparameter: Aktuell verwendete Einstellungen:
Skalierung der Graphiken ... ?
xyx+y,   Skalierungsfaktor:      Skalierung: Modus: x, Faktor: 1
Darstellungszeitraum ... ?
Vom - - bis: - -   Zeitraum: 14.05.2021 - 15.05.2021
Min/Max/Avg-Anzeige ... ?
Zeige MMA aktuell
Zeige MMA Monat
Zeige MMA alles
Zeige --A aktuell
Zeige --A Monat
Zeige --A alles
Keine MMA-Anzeige
MMA:
Minimum Maximum Average (ber die Originaldaten)
MMA-Basis: 14.05.2021 - 15.05.2021
Quicknavigation für Darstellung... ?
Tage:      1T, 2T, 3T, 5T -1T -2T -3T -5T +1T +2T +3T +5T
Wochen: 1W, 2W, 3W -1W -2W -3W +1W +2W +3W
Monate: 1M, 3M, 6M -1M -3M -6M +1M +3M +6M
Jahre:    1J, 3J, 5J, 10J -1J -3J -5J -10J +1J +3J +5J +10J
Nutze für die Darstellung ... ?
Originaldaten oder Mittelwerte auf ...
Stundenbasis Tagesbasis Wochenbasis
Monatsbasis Jahresbasis      Datenbasis: Original-Daten
Darstellen als:
Statistik (Auto) Statistik J:M      Darstellung:

Der gewünschte Datumsbereich war nicht gültig/verfügbar und wurde korrigiert....
Das angegebene Enddatum (28.12.2030 23:59:59) liegt in der Zukunft.
Das angegebene Startdatum (29.11.2030 00:00:00) liegt in der Zukunft.


Zur Graphik,    zurück zur Übersicht aller Sensoren.
 
Tabellarische Datenbersicht: ?
 
Sensor: Nr:Datum:Temp:Abs-Feuchte:Windchill:Wind:
Aussen-T/F 1 14-05-2021 02:00:00 10.8 C 8.6 g/m*3 10.8 C 1.6 km/h
2 14-05-2021 02:05:00 10.7 C 8.45 g/m*3 10.7 C 1.6 km/h
3 14-05-2021 02:10:00 10.6 C 8.39 g/m*3 10.6 C 0 km/h
4 14-05-2021 02:15:00 10.4 C 8.29 g/m*3 10.4 C 1.6 km/h
5 14-05-2021 02:20:00 10.3 C 8.24 g/m*3 10.3 C 1.6 km/h
6 14-05-2021 02:25:00 10.2 C 8.28 g/m*3 10.2 C 0 km/h
7 14-05-2021 02:30:00 10.1 C 8.23 g/m*3 10.1 C 1.6 km/h
8 14-05-2021 02:35:00 9.9 C 8.12 g/m*3 9.9 C 0 km/h
9 14-05-2021 02:40:00 9.8 C 8.07 g/m*3 9.8 C 0 km/h
10 14-05-2021 02:45:00 9.6 C 8.06 g/m*3 9.6 C 0 km/h
11 14-05-2021 02:50:00 9.5 C 8.01 g/m*3 9.5 C 0 km/h
12 14-05-2021 02:55:00 9.4 C 7.96 g/m*3 9.4 C 0 km/h
13 14-05-2021 03:00:00 9.3 C 7.91 g/m*3 9.3 C 0 km/h
14 14-05-2021 03:05:00 9.2 C 7.95 g/m*3 9.2 C 0 km/h
15 14-05-2021 03:10:00 9.1 C 7.9 g/m*3 9.1 C 0 km/h
16 14-05-2021 03:15:00 8.9 C 7.8 g/m*3 8.9 C 0 km/h
17 14-05-2021 03:20:00 8.8 C 7.75 g/m*3 8.8 C 0 km/h
18 14-05-2021 03:25:00 8.7 C 7.7 g/m*3 8.7 C 0 km/h
19 14-05-2021 03:30:00 8.6 C 7.73 g/m*3 8.6 C 0 km/h
20 14-05-2021 03:35:00 8.5 C 7.68 g/m*3 8.5 C 0 km/h
21 14-05-2021 03:40:00 8.4 C 7.63 g/m*3 8.4 C 0 km/h
22 14-05-2021 03:45:00 8.3 C 7.59 g/m*3 8.3 C 0 km/h
23 14-05-2021 03:50:00 8.3 C 7.59 g/m*3 8.3 C 3.2 km/h
24 14-05-2021 03:55:00 8.2 C 7.54 g/m*3 8.2 C 0 km/h
25 14-05-2021 04:00:00 8.1 C 7.57 g/m*3 8.1 C 0 km/h
Sensor: Nr:Datum:Temp:Abs-Feuchte:Windchill:Wind:
Aussen-T/F 26 14-05-2021 04:05:00 8.1 C 7.57 g/m*3 8.1 C 1.6 km/h
27 14-05-2021 04:10:00 8.1 C 7.57 g/m*3 8.1 C 0 km/h
28 14-05-2021 04:15:00 8 C 7.52 g/m*3 8 C 4.8 km/h
29 14-05-2021 04:20:00 8.1 C 7.57 g/m*3 8.1 C 4.8 km/h
30 14-05-2021 04:25:00 8 C 7.52 g/m*3 8 C 0 km/h
31 14-05-2021 04:30:00 7.9 C 7.47 g/m*3 7.9 C 0 km/h
32 14-05-2021 04:35:00 7.9 C 7.47 g/m*3 7.9 C 0 km/h
33 14-05-2021 04:40:00 7.8 C 7.43 g/m*3 7.8 C 0 km/h
34 14-05-2021 04:45:00 7.7 C 7.38 g/m*3 7.7 C 0 km/h
35 14-05-2021 04:50:00 7.7 C 7.38 g/m*3 7.7 C 4.8 km/h
36 14-05-2021 04:55:00 7.7 C 7.38 g/m*3 7.7 C 4.8 km/h
37 14-05-2021 05:00:00 7.7 C 7.38 g/m*3 7.7 C 1.6 km/h
38 14-05-2021 05:05:00 7.7 C 7.38 g/m*3 7.7 C 0 km/h
39 14-05-2021 05:10:00 7.7 C 7.38 g/m*3 7.7 C 0 km/h
40 14-05-2021 05:15:00 7.6 C 7.33 g/m*3 7.6 C 1.6 km/h
41 14-05-2021 05:20:00 7.5 C 7.28 g/m*3 7.5 C 0 km/h
42 14-05-2021 05:25:00 7.4 C 7.24 g/m*3 7.4 C 0 km/h
43 14-05-2021 05:30:00 7.3 C 7.19 g/m*3 7.3 C 0 km/h
44 14-05-2021 05:35:00 7.3 C 7.19 g/m*3 7.3 C 3.2 km/h
45 14-05-2021 05:40:00 7.3 C 7.27 g/m*3 7.3 C 4.8 km/h
46 14-05-2021 05:45:00 7.3 C 7.27 g/m*3 7.3 C 1.6 km/h
47 14-05-2021 05:50:00 7.3 C 7.27 g/m*3 7.3 C 1.6 km/h
48 14-05-2021 05:55:00 7.3 C 7.27 g/m*3 7.3 C 1.6 km/h
49 14-05-2021 06:00:00 7.4 C 7.32 g/m*3 7.4 C 1.6 km/h
50 14-05-2021 06:05:00 7.4 C 7.32 g/m*3 7.4 C 4.8 km/h
Sensor: Nr:Datum:Temp:Abs-Feuchte:Windchill:Wind:
Aussen-T/F 51 14-05-2021 06:10:00 7.4 C 7.32 g/m*3 7.4 C 1.6 km/h
52 14-05-2021 06:15:00 7.4 C 7.32 g/m*3 7.4 C 3.2 km/h
53 14-05-2021 06:20:00 7.4 C 7.32 g/m*3 7.4 C 0 km/h
54 14-05-2021 06:25:00 7.4 C 7.32 g/m*3 7.4 C 0 km/h
55 14-05-2021 06:30:00 7.4 C 7.32 g/m*3 7.4 C 0 km/h
56 14-05-2021 06:35:00 7.4 C 7.32 g/m*3 7.4 C 0 km/h
57 14-05-2021 06:40:00 7.4 C 7.32 g/m*3 7.4 C 0 km/h
58 14-05-2021 06:45:00 7.6 C 7.41 g/m*3 7.6 C 1.6 km/h
59 14-05-2021 06:50:00 7.6 C 7.41 g/m*3 7.6 C 0 km/h
60 14-05-2021 06:55:00 7.7 C 7.46 g/m*3 7.7 C 1.6 km/h
61 14-05-2021 07:00:00 7.8 C 7.51 g/m*3 7.8 C 3.2 km/h
62 14-05-2021 07:05:00 8 C 7.52 g/m*3 7.06 C 6.4 km/h
63 14-05-2021 07:10:00 8.1 C 7.57 g/m*3 8.1 C 4.8 km/h
64 14-05-2021 07:15:00 8.2 C 7.62 g/m*3 8.2 C 0 km/h
65 14-05-2021 07:20:00 8.3 C 7.59 g/m*3 8.3 C 3.2 km/h
66 14-05-2021 07:25:00 8.4 C 7.63 g/m*3 8.4 C 1.6 km/h
67 14-05-2021 07:30:00 8.5 C 7.77 g/m*3 8.5 C 3.2 km/h
68 14-05-2021 07:35:00 8.6 C 7.73 g/m*3 8.6 C 1.6 km/h
69 14-05-2021 07:40:00 8.8 C 7.83 g/m*3 8.8 C 4.8 km/h
70 14-05-2021 07:45:00 9 C 7.93 g/m*3 8.21 C 6.4 km/h
71 14-05-2021 07:50:00 9.2 C 7.95 g/m*3 8.45 C 6.4 km/h
72 14-05-2021 07:55:00 9.3 C 7.91 g/m*3 8.56 C 6.4 km/h
73 14-05-2021 08:00:00 9.5 C 8.01 g/m*3 9.5 C 4.8 km/h
74 14-05-2021 08:05:00 9.6 C 7.97 g/m*3 9.6 C 1.6 km/h
75 14-05-2021 08:10:00 9.7 C 8.02 g/m*3 9.7 C 0 km/h
Sensor: Nr:Datum:Temp:Abs-Feuchte:Windchill:Wind:
Aussen-T/F 76 14-05-2021 08:15:00 9.8 C 8.07 g/m*3 9.8 C 4.8 km/h
77 14-05-2021 08:20:00 9.9 C 8.12 g/m*3 9.9 C 1.6 km/h
78 14-05-2021 08:25:00 10.1 C 8.23 g/m*3 10.1 C 1.6 km/h
79 14-05-2021 08:30:00 10.2 C 8.28 g/m*3 10.2 C 1.6 km/h
80 14-05-2021 08:35:00 10.4 C 8.29 g/m*3 10.4 C 3.2 km/h
81 14-05-2021 08:40:00 10.7 C 8.45 g/m*3 10.7 C 3.2 km/h
82 14-05-2021 08:45:00 10.8 C 8.4 g/m*3 10.8 C 1.6 km/h
83 14-05-2021 08:50:00 11.1 C 8.56 g/m*3 11.1 C 3.2 km/h
84 14-05-2021 08:55:00 11.3 C 8.57 g/m*3 11.3 C 3.2 km/h
85 14-05-2021 09:00:00 11.4 C 8.52 g/m*3 11.4 C 8.1 km/h
86 14-05-2021 09:05:00 11.7 C 8.68 g/m*3 11.7 C 8.1 km/h
87 14-05-2021 09:10:00 11.8 C 8.63 g/m*3 11.8 C 3.2 km/h
88 14-05-2021 09:15:00 11.9 C 8.68 g/m*3 11.9 C 11.3 km/h
89 14-05-2021 09:20:00 12.1 C 8.69 g/m*3 12.1 C 11.3 km/h
90 14-05-2021 09:25:00 12.2 C 8.74 g/m*3 12.2 C 12.9 km/h
91 14-05-2021 09:30:00 12.2 C 8.63 g/m*3 12.2 C 12.9 km/h
92 14-05-2021 09:35:00 12.3 C 8.8 g/m*3 12.3 C 9.7 km/h
93 14-05-2021 09:40:00 12.4 C 8.74 g/m*3 12.4 C 12.9 km/h
94 14-05-2021 09:45:00 12.6 C 8.85 g/m*3 12.6 C 9.7 km/h
95 14-05-2021 09:50:00 12.7 C 8.79 g/m*3 12.7 C 8.1 km/h
96 14-05-2021 09:55:00 12.9 C 8.9 g/m*3 12.9 C 12.9 km/h
97 14-05-2021 10:00:00 13.1 C 9.01 g/m*3 13.1 C 9.7 km/h
98 14-05-2021 10:05:00 13.1 C 8.9 g/m*3 13.1 C 8.1 km/h
99 14-05-2021 10:10:00 13.2 C 8.96 g/m*3 13.2 C 6.4 km/h
100 14-05-2021 10:15:00 13.4 C 8.95 g/m*3 13.4 C 8.1 km/h
Sensor: Nr:Datum:Temp:Abs-Feuchte:Windchill:Wind:
Aussen-T/F 101 14-05-2021 10:20:00 13.6 C 8.94 g/m*3 13.6 C 11.3 km/h
102 14-05-2021 10:25:00 13.8 C 9.17 g/m*3 13.8 C 9.7 km/h
103 14-05-2021 10:30:00 13.9 C 9.11 g/m*3 13.9 C 11.3 km/h
104 14-05-2021 10:35:00 13.9 C 8.99 g/m*3 13.9 C 12.9 km/h
105 14-05-2021 10:40:00 13.9 C 8.99 g/m*3 13.9 C 11.3 km/h
106 14-05-2021 10:45:00 14 C 9.05 g/m*3 14 C 9.7 km/h
107 14-05-2021 10:50:00 14.3 C 9.34 g/m*3 14.3 C 6.4 km/h
108 14-05-2021 10:55:00 14.6 C 9.26 g/m*3 14.6 C 11.3 km/h
109 14-05-2021 11:00:00 14.8 C 9.12 g/m*3 14.8 C 17.7 km/h
110 14-05-2021 11:05:00 14.8 C 8.87 g/m*3 14.8 C 14.5 km/h
111 14-05-2021 11:10:00 14.8 C 8.87 g/m*3 14.8 C 11.3 km/h
112 14-05-2021 11:15:00 14.8 C 8.99 g/m*3 14.8 C 12.9 km/h
113 14-05-2021 11:20:00 14.8 C 8.99 g/m*3 14.8 C 12.9 km/h
114 14-05-2021 11:25:00 14.8 C 8.74 g/m*3 14.8 C 14.5 km/h
115 14-05-2021 11:30:00 14.9 C 8.92 g/m*3 14.9 C 9.7 km/h
116 14-05-2021 11:35:00 15 C 8.72 g/m*3 15 C 14.5 km/h
117 14-05-2021 11:40:00 15 C 8.98 g/m*3 15 C 11.3 km/h
118 14-05-2021 11:45:00 15.1 C 8.77 g/m*3 15.1 C 17.7 km/h
119 14-05-2021 11:50:00 15.2 C 8.83 g/m*3 15.2 C 12.9 km/h
120 14-05-2021 11:55:00 15.2 C 8.83 g/m*3 15.2 C 14.5 km/h
121 14-05-2021 12:00:00 15.2 C 8.57 g/m*3 15.2 C 12.9 km/h
122 14-05-2021 12:05:00 15.2 C 8.7 g/m*3 15.2 C 11.3 km/h
123 14-05-2021 12:10:00 15.3 C 8.49 g/m*3 15.3 C 11.3 km/h
124 14-05-2021 12:15:00 15.5 C 8.46 g/m*3 15.5 C 12.9 km/h
125 14-05-2021 12:20:00 15.6 C 8.64 g/m*3 15.6 C 14.5 km/h
Sensor: Nr:Datum:Temp:Abs-Feuchte:Windchill:Wind:
Aussen-T/F 126 14-05-2021 12:25:00 15.6 C 8.51 g/m*3 15.6 C 14.5 km/h
127 14-05-2021 12:30:00 15.7 C 8.56 g/m*3 15.7 C 12.9 km/h
128 14-05-2021 12:35:00 15.8 C 8.35 g/m*3 15.8 C 12.9 km/h
129 14-05-2021 12:40:00 15.8 C 8.48 g/m*3 15.8 C 12.9 km/h
130 14-05-2021 12:45:00 15.9 C 8.53 g/m*3 15.9 C 16.1 km/h
131 14-05-2021 12:50:00 16.1 C 8.64 g/m*3 16.1 C 11.3 km/h
132 14-05-2021 12:55:00 16.2 C 8.55 g/m*3 16.2 C 6.4 km/h
133 14-05-2021 13:00:00 16.2 C 8.41 g/m*3 16.2 C 12.9 km/h
134 14-05-2021 13:05:00 16.3 C 8.46 g/m*3 16.3 C 11.3 km/h
135 14-05-2021 13:10:00 16.4 C 8.37 g/m*3 16.4 C 9.7 km/h
136 14-05-2021 13:15:00 16.7 C 8.53 g/m*3 16.7 C 12.9 km/h
137 14-05-2021 13:20:00 16.7 C 8.1 g/m*3 16.7 C 11.3 km/h
138 14-05-2021 13:25:00 16.8 C 8.58 g/m*3 16.8 C 9.7 km/h
139 14-05-2021 13:30:00 16.9 C 8.34 g/m*3 16.9 C 12.9 km/h
140 14-05-2021 13:35:00 17.1 C 8.15 g/m*3 17.1 C 11.3 km/h
141 14-05-2021 13:40:00 17.4 C 7.71 g/m*3 17.4 C 14.5 km/h
142 14-05-2021 13:45:00 17.6 C 7.8 g/m*3 17.6 C 11.3 km/h
143 14-05-2021 13:50:00 17.7 C 8.3 g/m*3 17.7 C 6.4 km/h
144 14-05-2021 13:55:00 17.6 C 8.1 g/m*3 17.6 C 3.2 km/h
145 14-05-2021 14:00:00 17.7 C 8.45 g/m*3 17.7 C 8.1 km/h
146 14-05-2021 14:05:00 17.6 C 8.4 g/m*3 17.6 C 9.7 km/h
147 14-05-2021 14:10:00 17.6 C 8.4 g/m*3 17.6 C 9.7 km/h
148 14-05-2021 14:15:00 17.6 C 7.8 g/m*3 17.6 C 4.8 km/h
149 14-05-2021 14:20:00 17.7 C 8.45 g/m*3 17.7 C 9.7 km/h
150 14-05-2021 14:25:00 17.8 C 8.04 g/m*3 17.8 C 8.1 km/h
Sensor: Nr:Datum:Temp:Abs-Feuchte:Windchill:Wind:
Aussen-T/F 151 14-05-2021 14:30:00 17.8 C 8.2 g/m*3 17.8 C 6.4 km/h
152 14-05-2021 14:35:00 17.7 C 8 g/m*3 17.7 C 16.1 km/h
153 14-05-2021 14:40:00 17.2 C 8.35 g/m*3 17.2 C 17.7 km/h
154 14-05-2021 14:45:00 16.7 C 7.82 g/m*3 16.7 C 14.5 km/h
155 14-05-2021 14:50:00 16.8 C 8.15 g/m*3 16.8 C 11.3 km/h
156 14-05-2021 14:55:00 17.1 C 8.3 g/m*3 17.1 C 12.9 km/h
157 14-05-2021 15:00:00 17.4 C 8.45 g/m*3 17.4 C 14.5 km/h
158 14-05-2021 15:05:00 17.9 C 8.4 g/m*3 17.9 C 11.3 km/h
159 14-05-2021 15:10:00 18.2 C 8.24 g/m*3 18.2 C 12.9 km/h
160 14-05-2021 15:15:00 18.2 C 8.08 g/m*3 18.2 C 8.1 km/h
161 14-05-2021 15:20:00 18.2 C 8.24 g/m*3 18.2 C 8.1 km/h
162 14-05-2021 15:25:00 18.1 C 8.19 g/m*3 18.1 C 16.1 km/h
163 14-05-2021 15:30:00 18.1 C 8.19 g/m*3 18.1 C 12.9 km/h
164 14-05-2021 15:35:00 18.3 C 8.76 g/m*3 18.3 C 6.4 km/h
165 14-05-2021 15:40:00 18.6 C 7.8 g/m*3 18.6 C 14.5 km/h
166 14-05-2021 15:45:00 18.8 C 8.05 g/m*3 18.8 C 14.5 km/h
167 14-05-2021 15:50:00 19.4 C 8.01 g/m*3 19.4 C 16.1 km/h
168 14-05-2021 15:55:00 19.4 C 8.51 g/m*3 19.4 C 17.7 km/h
169 14-05-2021 16:00:00 19.2 C 8.57 g/m*3 19.2 C 20.9 km/h
170 14-05-2021 16:05:00 19.1 C 8.36 g/m*3 19.1 C 17.7 km/h
171 14-05-2021 16:10:00 18.9 C 8.1 g/m*3 18.9 C 17.7 km/h
172 14-05-2021 16:15:00 19 C 7.99 g/m*3 19 C 14.5 km/h
173 14-05-2021 16:20:00 19.2 C 8.24 g/m*3 19.2 C 8.1 km/h
174 14-05-2021 16:25:00 19.6 C 8.27 g/m*3 19.6 C 11.3 km/h
175 14-05-2021 16:30:00 19.8 C 8.03 g/m*3 19.8 C 11.3 km/h
Sensor: Nr:Datum:Temp:Abs-Feuchte:Windchill:Wind:
Aussen-T/F 176 14-05-2021 16:35:00 19.8 C 7.86 g/m*3 19.8 C 11.3 km/h
177 14-05-2021 16:40:00 19.8 C 8.03 g/m*3 19.8 C 9.7 km/h
178 14-05-2021 16:45:00 20 C 8.3 g/m*3 20 C 9.7 km/h
179 14-05-2021 16:50:00 20.3 C 8.62 g/m*3 20.3 C 9.7 km/h
180 14-05-2021 16:55:00 20.6 C 8.23 g/m*3 20.6 C 12.9 km/h
181 14-05-2021 17:00:00 20.7 C 7.92 g/m*3 20.7 C 14.5 km/h
182 14-05-2021 17:05:00 20.6 C 7.52 g/m*3 20.6 C 16.1 km/h
183 14-05-2021 17:10:00 20.3 C 7.56 g/m*3 20.3 C 12.9 km/h
184 14-05-2021 17:15:00 20.4 C 7.96 g/m*3 20.4 C 9.7 km/h
185 14-05-2021 17:20:00 20.5 C 8.01 g/m*3 20.5 C 12.9 km/h
186 14-05-2021 17:25:00 20.6 C 7.87 g/m*3 20.6 C 11.3 km/h
187 14-05-2021 17:30:00 20.6 C 7.87 g/m*3 20.6 C 11.3 km/h
188 14-05-2021 17:35:00 20.4 C 7.96 g/m*3 20.4 C 12.9 km/h
189 14-05-2021 17:40:00 19.9 C 7.9 g/m*3 19.9 C 11.3 km/h
190 14-05-2021 17:45:00 19.2 C 8.08 g/m*3 19.2 C 9.7 km/h
191 14-05-2021 17:50:00 18.6 C 7.96 g/m*3 18.6 C 12.9 km/h
192 14-05-2021 17:55:00 17.9 C 8.24 g/m*3 17.9 C 11.3 km/h
193 14-05-2021 18:00:00 17.2 C 8.49 g/m*3 17.2 C 14.5 km/h
194 14-05-2021 18:05:00 16.6 C 8.33 g/m*3 16.6 C 11.3 km/h
195 14-05-2021 18:10:00 16.2 C 8.27 g/m*3 16.2 C 14.5 km/h
196 14-05-2021 18:15:00 15.9 C 8.4 g/m*3 15.9 C 6.4 km/h
197 14-05-2021 18:20:00 16 C 8.31 g/m*3 16 C 11.3 km/h
198 14-05-2021 18:25:00 16.1 C 8.36 g/m*3 16.1 C 8.1 km/h
199 14-05-2021 18:30:00 16.1 C 8.36 g/m*3 16.1 C 6.4 km/h
200 14-05-2021 18:35:00 16.2 C 8.69 g/m*3 16.2 C 3.2 km/h
Sensor: Nr:Datum:Temp:Abs-Feuchte:Windchill:Wind:
Aussen-T/F 201 14-05-2021 18:40:00 16.7 C 8.95 g/m*3 16.7 C 4.8 km/h
202 14-05-2021 18:45:00 17.1 C 8.88 g/m*3 17.1 C 6.4 km/h
203 14-05-2021 18:50:00 17.2 C 8.93 g/m*3 17.2 C 1.6 km/h
204 14-05-2021 18:55:00 17.3 C 8.99 g/m*3 17.3 C 3.2 km/h
205 14-05-2021 19:00:00 17.4 C 8.89 g/m*3 17.4 C 3.2 km/h
206 14-05-2021 19:05:00 17.4 C 8.89 g/m*3 17.4 C 4.8 km/h
207 14-05-2021 19:10:00 17.4 C 8.6 g/m*3 17.4 C 8.1 km/h
208 14-05-2021 19:15:00 17.3 C 8.69 g/m*3 17.3 C 8.1 km/h
209 14-05-2021 19:20:00 17.3 C 8.69 g/m*3 17.3 C 8.1 km/h
210 14-05-2021 19:25:00 17.3 C 8.4 g/m*3 17.3 C 4.8 km/h
211 14-05-2021 19:30:00 17.2 C 7.91 g/m*3 17.2 C 3.2 km/h
212 14-05-2021 19:35:00 16.8 C 8.15 g/m*3 16.8 C 4.8 km/h
213 14-05-2021 19:40:00 16.6 C 8.48 g/m*3 16.6 C 1.6 km/h
214 14-05-2021 19:45:00 16.3 C 8.6 g/m*3 16.3 C 0 km/h
215 14-05-2021 19:50:00 16 C 8.58 g/m*3 16 C 1.6 km/h
216 14-05-2021 19:55:00 15.7 C 8.7 g/m*3 15.7 C 0 km/h
217 14-05-2021 20:00:00 15.3 C 8.62 g/m*3 15.3 C 3.2 km/h
218 14-05-2021 20:05:00 15 C 8.72 g/m*3 15 C 3.2 km/h
219 14-05-2021 20:10:00 14.7 C 8.69 g/m*3 14.7 C 4.8 km/h
220 14-05-2021 20:15:00 14.3 C 8.6 g/m*3 14.3 C 3.2 km/h
221 14-05-2021 20:20:00 14.1 C 8.62 g/m*3 14.1 C 3.2 km/h
222 14-05-2021 20:25:00 13.8 C 8.7 g/m*3 13.8 C 3.2 km/h
223 14-05-2021 20:30:00 13.7 C 8.64 g/m*3 13.7 C 4.8 km/h
224 14-05-2021 20:35:00 13.5 C 8.66 g/m*3 13.5 C 4.8 km/h
225 14-05-2021 20:40:00 13.4 C 8.6 g/m*3 13.4 C 4.8 km/h
Sensor: Nr:Datum:Temp:Abs-Feuchte:Windchill:Wind:
Aussen-T/F 226 14-05-2021 20:45:00 13.3 C 8.66 g/m*3 13.3 C 0 km/h
227 14-05-2021 20:50:00 13.3 C 8.78 g/m*3 13.3 C 0 km/h
228 14-05-2021 20:55:00 13.2 C 8.84 g/m*3 13.2 C 1.6 km/h
229 14-05-2021 21:00:00 13.2 C 8.84 g/m*3 13.2 C 3.2 km/h
230 14-05-2021 21:05:00 13.1 C 8.79 g/m*3 13.1 C 3.2 km/h
231 14-05-2021 21:10:00 13 C 8.85 g/m*3 13 C 3.2 km/h
232 14-05-2021 21:15:00 12.9 C 8.9 g/m*3 12.9 C 0 km/h
233 14-05-2021 21:20:00 12.8 C 8.85 g/m*3 12.8 C 0 km/h
234 14-05-2021 21:25:00 12.8 C 8.96 g/m*3 12.8 C 0 km/h
235 14-05-2021 21:30:00 12.7 C 8.91 g/m*3 12.7 C 0 km/h
236 14-05-2021 21:35:00 12.5 C 8.8 g/m*3 12.5 C 0 km/h
237 14-05-2021 21:40:00 12.4 C 8.74 g/m*3 12.4 C 0 km/h
238 14-05-2021 21:45:00 12.3 C 8.8 g/m*3 12.3 C 0 km/h

Legende:
   Min
   Max


Maximal/Minimal-Werte vom 14.05.2021 - 15.05.2021

Sensor Min Max Avg
Temp
(Aussen-T/F)
7.3 °C
14-05-2021  05:30:00
20.7 °C
14-05-2021  17:00:00
13.48 °C
Abs-Feuchte
(Aussen-T/F)
7.19 g/m*3
14-05-2021  05:30:00
9.34 g/m*3
14-05-2021  10:50:00
8.19 g/m*3
Windchill
(Aussen-T/F)
7.06 C
14-05-2021  07:05:00
20.7 C
14-05-2021  17:00:00
13.41 C

Die Daten stammen von einer Davis Vantage Pro 2 Wetter-Station und werden unter Linux mit der Software wview2wettercgi und aufbereitet. Alle Angaben erfolgen ohne Gewähr für ihre Vollständigkeit oder Richtigkeit.
Kontakt: Rainer Krienke krienke@uni-koblenz.de . Meine Webseiten an der Uni Koblenz oder privat.
Version: $Revision: 0.78 $